Vorticity
5 23 11 18 6 9 13 6 5 10 5 3 1 3 10 -3 -0 -2 9 32 1 3 3 5 5 4 3 3 2 5 6 6 7 5 6 7 5 3 4 5 6 5 5
9 21 11 11 10 5 6 10 10 10 0 3 5 4 6 -14 -5 11 -3 15 2 2 5 5 5 4 3 2 3 4 7 8 6 6 6 8 8 9 9 10 5 4 4
17 16 6 10 11 4 6 8 9 4 1 5 5 -1 5 34 34 12 6 8 3 2 4 5 5 4 2 2 3 6 8 6 7 5 6 6 7 6 6 6 9 8 14
7 15 15 7 10 10 11 16 6 9 7 2 9 14 17 -31 19 -4 19 -0 5 5 5 5 3 2 2 2 3 6 6 5 6 6 5 4 4 5 4 5 8 7 4
7 31 16 15 28 14 14 8 15 7 -32 56 2 -1 4 -11 -2 6 8 22 3 4 6 4 3 3 3 2 6 5 3 4 4 5 5 4 6 5 4 8 5 6 5
13 16 15 22 21 17 19 58 30 6 -3 9 -2 3 15 -10 7 21 15 8 3 5 4 4 4 4 3 6 6 4 3 4 3 4 5 4 4 4 3 2 2 2 3
20 1 13 11 10 25 1 -9 24 3 8 -2 13 -22 -9 5 28 35 12 3 6 3 5 4 4 3 6 5 5 5 7 7 5 4 4 3 4 4 3 3 4 4 3
13 9 14 29 12 8 29 17 -10 13 -12 2 5 9 15 18 18 8 10 12 8 4 4 3 4 4 5 5 5 5 4 4 6 6 6 5 5 6 7 8 11 13 12
-2 17 0 12 -3 -0 19 36 -15 28 11 -7 -14 14 13 1 7 9 12 13 3 4 4 4 5 4 4 5 6 6 7 8 10 11 12 12 10 9 8 6 4 4 4
3 20 7 6 10 8 -1 0 4 23 -16 30 19 10 23 5 10 9 2 4 4 4 5 4 4 5 6 8 9 10 12 11 8 5 4 4 3 1 3 6 3 3 3
12 -4 15 11 14 3 3 19 -0 15 15 18 15 -4 7 8 12 11 6 2 5 5 4 5 6 8 9 7 6 6 4 2 3 2 3 4 5 8 5 3 2 2 3
8 11 1 10 14 -0 2 16 10 38 39 -0 -4 15 39 10 7 1 3 2 5 6 6 7 9 8 5 3 3 3 2 2 3 4 6 7 6 4 2 2 1 4 4
10 7 11 4 6 22 10 4 23 5 -1 -4 10 10 -7 0 13 9 11 8 6 6 8 8 6 4 3 3 4 3 3 4 5 5 8 5 3 2 0 -3 -0 4 4
8 11 7 11 4 7 5 3 5 -1 1 9 -3 -7 11 2 -6 -6 -0 5 7 7 6 4 4 3 3 3 3 4 5 5 7 8 7 6 3 -1 -0 3 2 3 3
6 10 10 9 7 5 8 4 5 5 5 5 6 6 5 5 7 7 7 8 6 4 3 3 3 3 4 3 4 4 4 6 8 6 7 7 6 3 2 2 4 4 3
4 4 7 9 10 8 7 7 7 8 8 7 7 7 9 10 9 8 7 6 4 4 3 2 3 4 4 4 3 5 5 4 6 5 4 4 4 3 2 -0 -2 2 2
2 3 3 5 6 8 9 7 7 7 7 7 7 6 7 8 9 7 5 5 3 2 2 3 4 3 4 4 4 4 3 4 4 4 2 -1 -3 -2 -1 1 1 4 3
3 3 2 5 6 5 6 9 7 6 6 6 7 9 8 6 5 4 4 5 3 2 2 2 1 2 3 4 4 4 5 6 6 6 6 4 2 1 1 2 2 3 3
3 2 3 4 3 4 5 7 8 8 9 5 6 6 6 5 4 3 4 4 3 2 2 2 2 2 3 4 5 8 9 7 6 7 7 8 9 9 9 8 6 3 2
4 9 5 3 3 4 4 4 5 7 7 6 8 4 4 4 4 4 4 3 3 2 2 2 2 2 3 2 3 3 4 4 2 2 2 3 3 3 3 3 4 4 4
8 6 3 10 5 2 2 2 1 2 3 5 7 5 6 3 5 4 3 3 3 3 3 2 2 1 2 2 2 2 2 1 -0 1 4 5 5 5 5 5 5 5 4
7 8 9 4 5 10 8 3 3 2 3 3 4 5 6 8 8 8 6 6 5 5 6 5 5 4 3 3 3 3 3 4 5 5 5 4 4 4 4 5 5 4 4
5 7 6 10 12 3 2 5 8 6 3 3 4 1 1 3 4 4 5 6 7 9 11 11 10 8 9 8 6 5 5 4 3 4 5 4 3 3 4 4 6 5 4
6 7 11 10 10 13 14 9 5 4 6 7 8 6 3 3 3 4 3 4 4 3 4 5 8 11 11 9 7 8 9 8 7 6 4 4 4 5 4 5 6 5 5
7 7 5 5 6 2 5 10 12 11 7 6 7 7 8 9 7 3 3 2 3 3 3 4 4 5 6 9 10 10 10 8 6 6 7 8 8 8 7 7 8 7 6
10 7 6 5 6 7 8 6 6 7 8 9 10 8 6 7 8 7 6 6 5 4 4 4 4 4 5 5 6 8 9 10 11 10 9 7 7 9 10 9 9 7 6
Height
5784 5781 5780 5779 5779 5782 5785 5787 5791 5792 5793 5793 5796 5798 5800 5802 5804 5807 5808 5809 5811 5814 5815 5817 5819 5821 5822 5822 5823 5823 5824 5825 5825 5826 5827 5828 5830 5830 5832 5833 5833 5833 5834
5780 5777 5774 5774 5775 5777 5780 5783 5786 5788 5790 5791 5794 5795 5797 5798 5801 5804 5806 5808 5809 5812 5813 5816 5817 5819 5821 5822 5822 5823 5823 5825 5825 5826 5827 5828 5830 5830 5831 5832 5832 5834 5834
5777 5774 5771 5770 5771 5773 5776 5779 5783 5785 5786 5787 5789 5792 5793 5792 5794 5801 5803 5805 5807 5809 5811 5814 5816 5818 5819 5821 5821 5823 5824 5824 5826 5826 5828 5829 5829 5829 5830 5830 5831 5832 5833
5774 5770 5766 5766 5766 5770 5773 5776 5779 5779 5779 5780 5784 5787 5788 5788 5792 5796 5799 5800 5804 5807 5809 5812 5814 5817 5818 5819 5820 5822 5823 5824 5825 5827 5828 5828 5828 5829 5829 5829 5830 5831 5832
5770 5764 5762 5762 5763 5766 5769 5772 5775 5775 5765 5769 5781 5784 5785 5787 5789 5791 5794 5796 5801 5804 5807 5809 5812 5814 5816 5817 5819 5820 5822 5823 5823 5825 5826 5826 5827 5828 5830 5831 5831 5831 5832
5766 5761 5758 5758 5760 5764 5765 5763 5763 5770 5770 5770 5777 5780 5782 5784 5786 5788 5791 5794 5798 5802 5805 5808 5810 5812 5814 5815 5817 5819 5820 5821 5821 5823 5824 5825 5826 5827 5828 5829 5830 5831 5832
5764 5760 5758 5757 5759 5762 5763 5763 5753 5762 5764 5767 5772 5775 5778 5780 5781 5783 5787 5792 5795 5799 5802 5805 5808 5809 5811 5813 5814 5816 5818 5819 5820 5821 5822 5823 5825 5826 5827 5828 5829 5830 5831
5763 5760 5758 5755 5756 5759 5760 5761 5760 5763 5763 5766 5770 5774 5776 5777 5779 5782 5785 5789 5792 5796 5799 5801 5804 5806 5808 5809 5811 5813 5815 5816 5818 5819 5820 5821 5822 5823 5825 5826 5827 5828 5829
5762 5759 5757 5755 5755 5757 5758 5759 5757 5759 5767 5768 5769 5770 5772 5775 5778 5780 5782 5785 5790 5793 5796 5798 5801 5803 5805 5807 5808 5810 5811 5813 5814 5816 5818 5818 5819 5820 5822 5823 5825 5826 5827
5760 5758 5755 5755 5755 5755 5756 5755 5758 5760 5762 5763 5765 5767 5770 5772 5774 5776 5780 5785 5787 5790 5793 5795 5797 5800 5802 5803 5805 5807 5808 5810 5812 5814 5815 5816 5818 5818 5819 5820 5822 5823 5825
5758 5756 5755 5753 5751 5753 5754 5753 5755 5757 5757 5759 5762 5764 5767 5769 5771 5774 5778 5781 5784 5787 5789 5791 5794 5796 5798 5800 5801 5804 5806 5807 5809 5811 5813 5813 5814 5816 5818 5819 5819 5820 5821
5755 5754 5753 5752 5750 5751 5750 5750 5751 5751 5751 5752 5758 5761 5763 5765 5768 5772 5776 5778 5781 5783 5786 5788 5790 5792 5795 5796 5798 5800 5802 5804 5806 5807 5808 5810 5811 5813 5814 5814 5816 5816 5818
5752 5752 5751 5750 5751 5750 5750 5750 5751 5751 5752 5754 5755 5760 5764 5765 5767 5770 5773 5775 5778 5779 5782 5785 5787 5789 5791 5793 5794 5796 5798 5800 5802 5803 5803 5806 5807 5808 5809 5809 5810 5812 5813
5746 5749 5750 5749 5748 5749 5750 5750 5750 5752 5754 5755 5757 5759 5763 5763 5765 5767 5769 5771 5773 5775 5777 5781 5783 5785 5787 5789 5791 5792 5793 5795 5797 5798 5799 5801 5802 5804 5804 5805 5806 5807 5808
5741 5742 5744 5745 5746 5746 5746 5748 5748 5750 5751 5752 5755 5757 5759 5759 5761 5762 5764 5767 5768 5771 5774 5776 5779 5781 5782 5784 5785 5786 5787 5789 5791 5792 5794 5796 5797 5798 5800 5800 5800 5801 5802
5740 5738 5738 5740 5741 5742 5742 5744 5744 5745 5746 5747 5749 5751 5753 5755 5756 5757 5760 5763 5764 5767 5769 5772 5774 5775 5776 5778 5780 5781 5782 5783 5784 5786 5788 5789 5791 5792 5793 5794 5794 5795 5796
5733 5733 5734 5733 5734 5736 5737 5739 5739 5741 5741 5743 5744 5745 5747 5749 5751 5753 5754 5758 5759 5762 5763 5765 5766 5769 5770 5771 5773 5774 5775 5776 5777 5779 5780 5782 5783 5785 5784 5786 5787 5786 5787
5727 5727 5727 5729 5730 5730 5731 5732 5733 5734 5735 5736 5738 5740 5741 5742 5744 5747 5749 5752 5753 5756 5756 5758 5760 5761 5761 5763 5764 5767 5768 5769 5770 5770 5772 5774 5775 5776 5775 5775 5777 5778 5778
5717 5719 5722 5722 5722 5722 5724 5726 5727 5729 5731 5731 5732 5733 5735 5736 5737 5739 5741 5743 5745 5746 5748 5748 5750 5752 5754 5755 5757 5759 5760 5760 5761 5761 5762 5763 5765 5766 5767 5766 5767 5769 5768
5709 5710 5712 5714 5715 5717 5718 5719 5720 5721 5722 5723 5724 5726 5726 5727 5729 5731 5732 5734 5736 5738 5739 5740 5741 5743 5745 5746 5748 5750 5751 5751 5752 5752 5753 5754 5755 5756 5758 5756 5757 5758 5758
5701 5701 5703 5704 5705 5706 5708 5709 5710 5712 5713 5714 5716 5717 5718 5720 5721 5723 5724 5726 5727 5728 5730 5731 5731 5732 5734 5736 5736 5739 5740 5741 5742 5742 5742 5742 5743 5744 5746 5745 5746 5747 5746
5690 5690 5691 5693 5694 5696 5698 5698 5699 5701 5703 5705 5707 5709 5711 5712 5714 5713 5713 5715 5716 5718 5720 5721 5721 5723 5724 5725 5725 5726 5728 5731 5731 5731 5730 5731 5731 5732 5733 5733 5734 5734 5734
5680 5680 5680 5680 5681 5683 5684 5687 5690 5691 5692 5694 5696 5697 5698 5700 5702 5702 5703 5705 5706 5708 5710 5710 5710 5711 5712 5713 5712 5715 5716 5717 5718 5718 5718 5719 5718 5719 5719 5719 5720 5720 5720
5668 5668 5669 5669 5670 5669 5672 5673 5675 5677 5679 5680 5683 5685 5686 5687 5689 5690 5691 5693 5695 5696 5697 5698 5698 5700 5700 5700 5701 5702 5703 5704 5705 5706 5705 5705 5705 5705 5705 5705 5706 5706 5706
5657 5657 5657 5657 5657 5658 5659 5660 5661 5662 5663 5666 5668 5670 5673 5675 5676 5676 5677 5679 5680 5681 5682 5684 5685 5686 5686 5687 5688 5689 5690 5690 5691 5691 5691 5691 5691 5690 5690 5689 5690 5690 5690
5643 5644 5644 5644 5645 5646 5646 5647 5648 5649 5650 5651 5652 5654 5656 5658 5660 5662 5663 5665 5666 5666 5668 5669 5669 5671 5672 5673 5674 5676 5676 5676 5676 5676 5676 5678 5677 5676 5674 5674 5673 5673 5673